Weather reports worldwide

Advertisment
List/Sylt, Germany (10020): temperature & dewpoint: 17.10.2019 05:00:00 - 23.10.2019 05:00:00 (CEST)List/Sylt, Germany (10020): temperature 5cm & temperature -5cm: 17.10.2019 05:00:00 - 23.10.2019 05:00:00 (CEST)List/Sylt, Germany (10020): temperature -20cm: 17.10.2019 05:00:00 - 23.10.2019 05:00:00 (CEST)List/Sylt, Germany (10020): wind speed & gusts: 17.10.2019 05:00:00 - 23.10.2019 05:00:00 (CEST)List/Sylt, Germany (10020): wind direction: 17.10.2019 05:00:00 - 23.10.2019 05:00:00 (CEST)List/Sylt, Germany (10020): reduced air pressure: 17.10.2019 05:00:00 - 23.10.2019 05:00:00 (CEST)List/Sylt, Germany (10020): visibility: 17.10.2019 05:00:00 - 23.10.2019 05:00:00 (CEST)List/Sylt, Germany (10020): sunshine duration: 17.10.2019 05:00:00 - 23.10.2019 05:00:00 (CEST)List/Sylt, Germany (10020): precipitation: 17.10.2019 05:00:00 - 23.10.2019 05:00:00 (CEST)
Date & Time tt [°C] td [°C] tt 5cm [°C] tt -5cm [°C] tt -20cm [°C] ff [km/h] ff [kn] fx [km/h] fx [kn] dd ppp [hPa] vv [km] sd [min] rr [mm]
23.10.2019 05:00:00 12,2 6,9 11,4 11,1 11,6 20 11 34 18 WSW 1019,9 47 0 0,0
23.10.2019 04:00:00 12,1 7,3 11,3 11,0 11,7 22 12 36 19 WSW 1020,5 46 0 0,0
23.10.2019 03:00:00 12,0 7,2 11,1 11,1 11,7 24 13 40 22 WSW 1020,9 41 0 0,0
23.10.2019 02:00:00 12,0 7,0 11,0 11,3 11,8 27 14 37 20 WSW 1021,3 47 0 0,0
23.10.2019 01:00:00 12,2 7,4 11,5 11,3 11,9 25 13 36 20 WSW 1021,3 44 0 0,0
23.10.2019 00:00:00 12,2 7,5 11,5 11,2 12,0 26 14 46 25 WSW 1021,3 44 0 0,0
22.10.2019 23:00:00 11,6 6,7 10,1 11,3 12,1 28 15 40 22 WSW 1021,3 44 0 0,0
22.10.2019 22:00:00 11,7 6,7 10,4 11,5 12,2 24 13 40 21 WSW 1021,1 47 0 0,0
22.10.2019 21:00:00 11,8 6,3 10,8 11,7 12,4 26 14 42 23 W 1021,1 46 0 0,0
22.10.2019 20:00:00 12,1 6,3 10,5 12,0 12,5 32 17 46 25 W 1021,0 49 0 0,0
22.10.2019 19:00:00 12,4 8,0 11,3 12,4 12,6 32 17 45 25 WSW 1020,8 39 0 0,0
22.10.2019 18:00:00 12,3 8,1 10,8 12,9 12,7 30 16 42 23 WSW 1020,5 49 21 0,0
22.10.2019 17:00:00 12,8 8,5 11,7 13,3 12,6 28 15 39 21 WSW 1020,5 50 52 0,0
22.10.2019 16:00:00 13,6 9,4 14,0 13,6 12,5 25 14 38 20 WSW 1020,5 53 9 0,0
22.10.2019 15:00:00 13,6 10,2 15,3 13,7 12,3 22 12 39 21 WSW 1020,7 46 28 0,0
22.10.2019 14:00:00 13,7 10,3 14,2 13,5 12,1 21 12 32 18 WSW 1020,5 65 7 0,0
22.10.2019 13:00:00 13,7 10,9 15,1 13,0 11,9 13 7 20 11 WSW 1020,6 60 8 0,0
22.10.2019 12:00:00 13,3 11,4 14,2 12,5 11,8 12 7 18 10 W 1020,0 64 0 0,0
22.10.2019 11:00:00 12,8 11,2 13,2 12,0 11,7 9 5 14 8 W 1019,9 53 0 0,0
22.10.2019 10:00:00 12,4 11,5 12,5 11,8 11,6 12 7 18 10 NW 1019,1 18 0 0,0
22.10.2019 09:00:00 12,7 11,9 12,3 11,6 11,6 14 8 43 23 WSW 1018,4 23 0 1,1
22.10.2019 08:00:00 12,7 11,4 12,1 11,6 11,6 28 15 38 21 SW 1017,7 13 0 0,0
22.10.2019 07:00:00 12,7 11,4 12,0 11,5 11,5 26 14 38 21 SW 1017,6 11 0 0,0
22.10.2019 06:00:00 12,6 11,1 11,8 11,5 11,5 29 16 37 20 SSW 1017,5 12 0 0,0
22.10.2019 05:00:00 12,5 11,3 11,9 11,4 11,5 23 12 32 17 SSW 1017,7 9 0 0,0
22.10.2019 04:00:00 12,5 11,3 11,7 11,4 11,5 24 13 37 20 SW 1017,7 10 0 0,0
22.10.2019 03:00:00 12,9 11,4 12,0 11,4 11,5 24 13 36 19 SW 1018,2 18 0 0,0
22.10.2019 02:00:00 12,8 11,6 12,1 11,3 11,5 24 13 29 16 SSW 1018,2 9 0 0,0
22.10.2019 01:00:00 11,9 11,3 11,2 11,3 11,5 14 8 22 12 SW 1018,1 3,8 0 0,0
22.10.2019 00:00:00 12,0 11,5 11,5 11,4 11,5 14 8 23 13 S 1018,1 3,5 0 0,0
21.10.2019 23:00:00 12,0 11,6 11,8 11,4 11,5 12 7 17 9 SSE 1018,2 0,2 0 0,0
21.10.2019 22:00:00 11,7 11,4 11,6 11,4 11,5 12 6 23 13 SE 1018,0 2,6 0 0,0
21.10.2019 21:00:00 11,5 11,0 11,3 11,3 11,4 17 9 22 12 ESE 1017,7 0,6 0 0,0
21.10.2019 20:00:00 11,2 10,6 11,1 11,3 11,4 13 7 21 11 E 1017,7 1,9 0 0,1
21.10.2019 19:00:00 11,0 10,5 11,0 11,3 11,4 15 8 24 13 NE 1017,8 2,6 0 0,6
21.10.2019 18:00:00 11,0 10,4 10,9 11,3 11,4 16 8 28 15 NE 1017,3 2,2 0 0,3
21.10.2019 17:00:00 10,9 10,3 10,9 11,4 11,4 20 11 32 17 ENE 1017,1 2,8 0 0,1
21.10.2019 16:00:00 10,9 10,3 10,9 11,3 11,4 21 11 28 15 NE 1017,2 2,2 0 0,4
21.10.2019 15:00:00 10,9 10,3 11,0 11,3 11,3 17 9 31 17 NE 1017,5 1,5 0 1,2
21.10.2019 14:00:00 10,9 10,0 10,9 11,3 11,3 21 12 36 19 NE 1017,7 2,6 0 1,7
21.10.2019 13:00:00 11,0 9,6 10,7 11,2 11,2 23 12 35 19 ENE 1017,7 19 0 0,2
21.10.2019 12:00:00 11,2 10,1 11,0 11,1 11,2 25 13 36 20 E 1018,0 9 0 0,0
21.10.2019 11:00:00 10,8 9,9 10,8 10,8 11,1 22 12 31 17 ENE 1017,6 4,0 0 0,2
21.10.2019 10:00:00 10,3 9,6 10,2 10,7 11,1 18 10 29 16 NE 1018,1 3,2 0 0,7
21.10.2019 09:00:00 10,0 9,3 9,9 10,6 11,1 17 9 27 15 NE 1017,3 3,2 0 0,0
21.10.2019 08:00:00 10,0 9,6 10,0 10,5 11,1 18 10 31 17 ENE 1016,8 3,1 0 0,1
21.10.2019 07:00:00 9,4 8,9 9,3 10,5 11,2 20 11 29 16 ENE 1016,4 0,3 0 0,0
21.10.2019 06:00:00 9,0 8,3 9,0 10,5 11,2 22 12 29 16 ENE 1016,0 0,8 0 0,0
21.10.2019 05:00:00 10,0 9,1 9,5 10,5 11,3 19 11 27 14 NE 1015,3 3,6 0 0,0
21.10.2019 04:00:00 9,9 8,9 9,2 10,4 11,3 14 7 20 11 NE 1015,9 5 0 0,0
21.10.2019 03:00:00 9,8 9,0 8,9 10,5 11,4 13 7 18 10 ENE 1015,2 2,9 0 0,0
21.10.2019 02:00:00 10,0 9,4 8,8 10,6 11,5 11 6 14 8 ENE 1015,2 3,1 0 0,0
21.10.2019 01:00:00 10,3 9,6 9,3 10,7 11,6 11 6 16 8 E 1014,9 2,4 0 0,0
21.10.2019 00:00:00 10,3 9,4 8,9 10,8 11,7 11 6 14 8 E 1014,4 3,1 0 0,0
20.10.2019 23:00:00 10,8 9,8 9,2 11,0 11,8 11 6 15 8 ESE 1014,2 3,9 0 0,0
20.10.2019 22:00:00 11,0 10,2 9,8 11,1 12,0 10 6 13 7 ESE 1013,6 2,6 0 0,0
20.10.2019 21:00:00 11,2 10,4 9,3 11,4 12,1 10 6 14 7 SE 1013,2 2,6 0 0,0
20.10.2019 20:00:00 11,5 10,5 9,3 11,7 12,2 9 5 11 6 SSE 1012,7 4,4 0 0,0
20.10.2019 19:00:00 11,7 10,4 10,3 12,1 12,2 10 5 18 10 SSE 1012,1 7 0 0,0
20.10.2019 18:00:00 11,9 10,3 11,2 12,5 12,2 13 7 18 10 SSE 1011,4 9 0 0,0
20.10.2019 17:00:00 12,3 10,5 11,8 12,7 12,1 12 7 23 12 SSE 1010,9 13 0 0,0
20.10.2019 16:00:00 12,4 10,2 12,4 12,8 12,0 16 9 24 13 S 1010,4 16 0 0,0
20.10.2019 15:00:00 12,7 10,2 13,1 12,7 11,8 16 9 27 14 S 1010,2 21 0 0,0
20.10.2019 14:00:00 12,7 10,2 13,3 12,6 11,6 21 12 27 15 S 1009,9 20 16 0,0
20.10.2019 13:00:00 13,1 11,0 14,5 12,1 11,4 20 11 31 17 S 1009,4 16 10 0,0
20.10.2019 12:00:00 12,6 10,7 13,0 11,6 11,3 22 12 28 15 S 1009,1 16 16 0,0
20.10.2019 11:00:00 12,2 10,8 12,6 10,9 11,3 18 10 29 16 S 1008,6 11 9 0,0
20.10.2019 10:00:00 11,9 10,7 10,9 10,7 11,3 20 11 26 14 S 1007,9 13 0 0,0
20.10.2019 09:00:00 11,9 10,6 10,4 10,6 11,3 16 9 23 12 S 1007,3 17 0 0,0
20.10.2019 08:00:00 11,6 10,0 9,6 10,7 11,4 13 7 25 14 S 1006,5 20 0 0,0
20.10.2019 07:00:00 12,0 10,0 10,2 10,7 11,4 19 11 27 15 SSW 1005,9 23 0 0,0
20.10.2019 06:00:00 12,0 10,4 10,5 10,8 11,5 22 12 29 15 SSW 1005,5 16 0 0,0
20.10.2019 05:00:00 11,9 10,1 10,3 10,9 11,5 22 12 30 16 SSW 1005,2 20 0 0,0
20.10.2019 04:00:00 12,0 10,2 10,4 10,9 11,6 23 12 29 16 S 1005,1 18 0 0,0
20.10.2019 03:00:00 12,0 10,1 10,4 10,9 11,6 24 13 34 19 SSW 1005,0 20 0 0,0
20.10.2019 02:00:00 11,9 10,2 10,2 10,9 11,7 22 12 31 17 S 1004,9 19 0 0,0
20.10.2019 01:00:00 11,9 10,4 10,2 11,0 11,7 21 11 29 16 S 1004,7 23 0 0,0
20.10.2019 00:00:00 12,0 10,5 10,3 11,0 11,8 23 12 32 17 S 1004,1 29 0 0,0
19.10.2019 23:00:00 12,0 10,2 10,2 11,1 11,9 19 11 26 14 S 1003,9 35 0 0,0
19.10.2019 22:00:00 11,7 9,8 9,8 11,3 12,0 18 10 21 12 S 1003,4 39 0 0,0
19.10.2019 21:00:00 11,6 10,1 9,8 11,5 12,1 16 8 26 14 SSW 1003,3 35 0 0,0
19.10.2019 20:00:00 11,8 10,7 10,7 11,8 12,2 22 12 31 17 S 1003,0 30 0 0,0
19.10.2019 19:00:00 11,7 10,5 10,7 12,1 12,2 22 12 32 18 S 1002,7 26 0 0,0
19.10.2019 18:00:00 11,8 10,5 11,3 12,2 12,2 23 13 34 19 S 1002,3 38 0 1,0
19.10.2019 17:00:00 11,8 10,6 11,5 12,4 12,2 24 13 39 21 S 1002,4 7 0 0,5
19.10.2019 16:00:00 12,4 10,1 12,4 12,5 12,1 25 14 40 21 S 1002,7 33 0 0,0
19.10.2019 15:00:00 12,6 10,0 13,4 12,5 12,0 32 17 43 23 S 1002,7 33 0 0,0
19.10.2019 14:00:00 12,6 10,1 13,4 12,3 11,9 36 19 46 25 S 1002,8 27 3 0,0
19.10.2019 13:00:00 12,6 9,8 13,6 12,0 11,8 35 19 47 25 S 1002,9 28 0 0,0
19.10.2019 12:00:00 12,5 9,6 12,9 11,7 11,7 37 20 48 26 S 1002,9 28 0 0,0
19.10.2019 11:00:00 12,3 9,3 12,6 11,4 11,7 32 17 51 27 S 1002,7 30 0 0,0
19.10.2019 10:00:00 12,1 8,9 11,7 11,2 11,7 41 22 53 29 S 1002,4 27 0 0,0
19.10.2019 09:00:00 12,0 9,0 11,5 11,1 11,7 36 19 58 31 S 1002,5 27 0 0,0
19.10.2019 08:00:00 12,1 8,8 10,9 11,1 11,8 43 23 55 30 S 1002,1 26 0 0,0
19.10.2019 07:00:00 12,0 8,8 10,7 11,1 11,8 41 22 55 30 SSW 1002,1 28 0 0,0
19.10.2019 06:00:00 12,1 8,9 10,7 11,2 11,9 36 19 53 29 SSW 1002,1 29 0 0,0
19.10.2019 05:00:00 12,5 8,4 11,0 11,3 12,0 45 24 66 36 SSW 1001,7 30 0 0,0
19.10.2019 04:00:00 12,5 8,8 11,1 11,4 12,0 41 22 64 35 SSW 1001,3 25 0 0,0
19.10.2019 03:00:00 12,7 9,0 11,2 11,5 12,1 46 25 66 35 SW 1001,2 22 0 0,0
19.10.2019 02:00:00 12,4 8,2 10,7 11,5 12,1 48 26 73 39 SW 1000,9 24 0 0,0
19.10.2019 01:00:00 11,5 7,7 9,9 11,6 12,2 48 26 94 51 SSW 1000,4 25 0 0,0
19.10.2019 00:00:00 12,5 8,8 11,0 11,7 12,2 54 29 79 42 SW 1000,4 21 0 0,0
18.10.2019 23:00:00 12,2 9,1 10,7 11,7 12,3 41 22 74 40 SW 1000,1 19 0 0,0
18.10.2019 22:00:00 12,4 8,7 10,7 11,7 12,4 44 24 62 33 SSW 1000,0 25 0 0,0
18.10.2019 21:00:00 12,1 9,3 10,4 11,9 12,5 35 19 65 35 SW 999,5 22 0 0,1
18.10.2019 20:00:00 11,3 9,4 10,4 12,1 12,6 56 31 87 47 SW 999,0 14 0 1,0
18.10.2019 19:00:00 11,8 9,3 10,3 12,4 12,7 39 21 70 38 SSW 998,3 24 0 1,3
18.10.2019 18:00:00 12,2 10,3 11,4 12,6 12,7 36 19 46 25 SSE 998,6 24 0 0,1
18.10.2019 17:00:00 11,0 9,4 10,5 13,0 12,7 29 16 83 45 SSW 998,3 9 0 1,9
18.10.2019 16:00:00 13,6 11,5 13,5 13,2 12,6 27 15 44 24 SSE 999,0 40 4 0,0
18.10.2019 15:00:00 14,4 11,4 17,2 13,1 12,5 34 19 45 24 SSE 1000,0 48 14 0,0
18.10.2019 14:00:00 13,7 11,1 14,8 12,7 12,4 33 18 50 27 S 1001,0 36 1 0,0
18.10.2019 13:00:00 13,3 11,4 13,6 12,4 12,3 34 19 46 25 S 1002,0 29 0 0,0
18.10.2019 12:00:00 12,8 11,5 12,9 12,3 12,3 33 18 44 24 SSE 1002,9 9 0 0,0
18.10.2019 11:00:00 12,3 11,0 12,5 12,1 12,3 26 14 42 23 SSE 1003,5 8 0 0,0
18.10.2019 10:00:00 12,3 10,3 12,2 12,0 12,3 27 15 40 21 SSE 1004,1 17 0 0,0
18.10.2019 09:00:00 12,2 9,8 11,9 11,9 12,3 29 16 37 20 SSE 1004,6 34 0 0,0
18.10.2019 08:00:00 12,0 10,3 11,5 11,9 12,3 26 14 34 19 SSE 1005,0 22 0 0,0
18.10.2019 07:00:00 12,1 11,1 11,6 11,9 12,4 25 13 32 17 SSE 1005,4 10 0 0,0
18.10.2019 06:00:00 12,2 11,1 11,5 11,9 12,4 23 12 32 17 SSE 1006,2 12 0 0,0
18.10.2019 05:00:00 12,1 10,8 11,3 11,9 12,5 23 12 34 18 SSE 1006,7 17 0 0,0
18.10.2019 04:00:00 12,1 10,8 11,3 12,0 12,5 27 14 37 20 SSE 1006,6 12 0 0,0
18.10.2019 03:00:00 12,2 10,4 11,9 12,1 12,5 25 13 37 20 SSE 1007,3 19 0 0,0
18.10.2019 02:00:00 11,9 9,7 11,4 12,0 12,6 24 13 32 18 SE 1007,6 26 0 0,0
18.10.2019 01:00:00 11,8 9,4 11,2 12,1 12,7 20 11 30 16 SE 1008,1 29 0 0,0
18.10.2019 00:00:00 12,0 9,3 11,0 12,2 12,8 20 11 28 15 SE 1008,4 33 0 0,0
17.10.2019 23:00:00 12,4 9,9 11,5 12,3 12,8 19 10 26 14 SE 1009,0 34 0 0,0
17.10.2019 22:00:00 12,5 9,6 11,5 12,3 12,9 20 11 26 14 SSE 1009,4 39 0 0,0
17.10.2019 21:00:00 12,6 9,6 11,5 12,3 13,1 15 8 20 11 S 1009,5 39 0 0,0
17.10.2019 20:00:00 11,9 8,6 10,2 12,5 13,3 10 5 16 9 SSW 1009,4 39 0 0,0
17.10.2019 19:00:00 11,6 7,8 9,1 13,0 13,4 13 7 21 12 SW 1009,3 38 5 0,0
17.10.2019 18:00:00 12,9 7,5 11,5 13,6 13,5 16 8 24 13 SW 1009,3 42 13 0,0
17.10.2019 17:00:00 13,0 7,5 12,2 14,0 13,5 18 10 32 18 WSW 1009,1 48 22 0,0
17.10.2019 16:00:00 14,1 7,6 14,9 14,3 13,4 22 12 37 20 WSW 1008,7 49 34 0,0
17.10.2019 15:00:00 14,1 8,2 14,0 14,3 13,2 26 14 39 21 WSW 1008,2 48 20 0,0
17.10.2019 14:00:00 13,9 10,5 13,6 14,1 13,1 19 10 27 15 SW 1007,7 36 2 0,0
17.10.2019 13:00:00 13,7 11,0 15,1 13,8 12,9 18 10 30 16 SSW 1007,5 38 2 0,0
17.10.2019 12:00:00 14,3 11,3 14,9 13,6 12,8 16 9 26 14 SW 1007,2 34 5 0,0
17.10.2019 11:00:00 14,0 12,1 14,4 13,1 12,7 15 8 21 12 SW 1006,7 36 12 0,0
17.10.2019 10:00:00 13,2 11,9 13,2 12,7 12,7 15 8 24 13 WSW 1006,2 26 0 0,1
17.10.2019 09:00:00 12,6 11,7 12,4 12,6 12,7 12 7 22 12 WSW 1005,6 9 0 0,6
17.10.2019 08:00:00 12,4 11,7 12,2 12,7 12,7 18 10 27 15 WSW 1004,8 4,3 0 0,9
17.10.2019 07:00:00 12,6 12,1 12,5 12,7 12,7 18 10 33 18 WSW 1004,3 8 0 1,6
17.10.2019 06:00:00 13,3 12,9 13,1 12,7 12,7 25 13 33 18 SSW 1004,1 5 0 1,3
17.10.2019 05:00:00 13,0 12,6 12,9 12,6 12,7 26 14 36 19 S 1004,2 5 0 1,5

tt = temperature
td = dewpoint
tt 5cm = temperature 5cm
tt -5cm = temperature -5cm
tt -20cm = temperature -20cm
ff = wind speed
fx = gusts
dd = wind direction
ppp = reduced air pressure
vv = visibility
sd = sunshine duration
rr = precipitation

Next stations